Theta_e
320 320 320 321 320 321 322 322 323 323 323 323 324 324 324 324 323 311 301 310 313 330 318 306 305 303 302 301 300 296 290 286 288 288 292 293 292 294 295 296 296 298 296 296 299
319 319 320 320 320 320 320 321 321 321 322 322 322 323 323 323 309 304 316 328 332 327 305 303 300 300 298 298 299 295 287 288 292 291 292 293 293 294 296 294 293 296 297 297 300
319 319 319 319 319 320 320 320 320 320 321 321 321 322 323 319 298 297 328 329 334 322 306 302 302 300 295 297 297 294 292 292 294 295 295 294 293 295 293 293 295 296 297 296 297
319 319 319 318 319 319 320 320 320 320 320 320 321 322 323 309 290 299 331 332 332 308 304 301 299 296 294 294 297 293 296 295 297 297 295 294 294 293 294 300 299 298 297 296 296
319 319 319 318 318 319 320 320 320 320 320 320 320 322 310 295 297 314 329 328 309 305 302 299 297 296 293 293 293 293 294 297 297 297 296 296 295 294 294 298 297 296 296 296 296
319 318 318 318 319 319 320 320 321 320 320 320 320 321 299 292 303 317 315 307 305 302 300 299 297 298 294 294 294 292 294 295 295 296 296 295 297 293 296 296 297 296 295 295 295
319 318 318 318 319 319 320 320 321 321 320 320 319 316 300 297 306 310 308 304 304 302 299 299 299 298 295 292 295 293 291 292 292 293 293 294 292 291 298 294 295 295 294 295 294
319 318 318 318 319 320 320 321 321 320 320 320 319 307 294 303 304 304 302 300 302 301 300 300 299 297 294 294 292 287 288 285 289 291 291 293 287 296 295 292 294 293 293 293 295
318 318 318 319 319 319 320 320 318 321 320 320 308 298 293 309 301 303 301 300 300 300 300 304 299 294 293 288 285 283 281 282 286 292 291 290 287 292 294 291 293 294 295 295 295
318 318 319 319 319 320 320 318 317 315 317 317 310 295 298 297 302 301 300 301 298 298 297 295 292 289 287 285 280 282 280 282 283 289 286 286 287 292 296 292 293 296 296 296 298
319 319 319 319 320 321 312 300 297 295 298 296 296 294 298 300 302 299 301 300 298 294 289 290 287 285 289 288 286 283 282 281 287 290 286 287 289 291 294 294 294 295 295 296 297
320 320 320 319 320 319 304 299 296 296 292 298 296 299 301 301 296 297 300 295 293 289 289 287 284 290 289 288 288 286 283 284 288 291 287 287 287 290 292 294 295 296 296 297 296
320 319 319 319 319 310 301 299 304 302 291 295 296 294 295 300 295 297 298 294 291 288 287 286 288 291 289 286 286 283 283 285 284 287 286 284 284 286 290 293 295 296 297 298 296
320 320 320 319 312 305 302 302 303 298 288 290 291 294 296 296 290 296 297 295 289 288 287 286 290 289 286 286 286 284 287 287 285 282 279 285 280 284 288 290 290 293 293 293 293
319 319 320 319 308 309 305 303 301 294 282 293 290 298 296 290 291 292 295 292 288 288 287 286 286 285 285 287 288 286 287 286 283 281 278 279 278 283 285 286 289 291 292 293 293
316 318 317 313 309 309 306 304 299 291 284 291 290 289 290 290 290 291 291 293 291 288 286 287 288 288 288 288 289 287 285 284 281 280 276 281 281 282 283 286 287 289 291 292 293
313 314 315 315 309 309 307 306 293 286 295 289 286 289 287 286 288 288 287 286 285 281 280 282 285 288 288 285 285 285 282 277 275 274 278 280 279 287 287 288 289 292 293 293 292
311 313 314 316 311 312 310 300 285 293 293 296 292 289 287 289 290 287 284 283 286 284 280 280 283 285 287 288 286 283 284 277 272 274 282 278 278 286 290 291 291 290 290 291 290
310 310 311 314 312 312 304 291 291 294 296 295 295 292 291 291 291 289 285 285 286 287 285 281 281 285 286 286 288 282 281 286 281 273 272 281 285 291 291 289 288 288 289 289 290
302 304 303 314 313 308 298 292 294 298 297 296 291 293 286 288 287 286 286 286 286 287 290 287 284 287 285 286 285 285 285 279 278 275 274 279 282 284 288 289 289 289 290 290 291
300 294 301 311 311 301 290 291 296 300 299 296 294 293 292 291 291 290 289 291 289 289 289 289 288 287 286 283 283 283 283 283 283 281 277 277 281 292 291 289 289 289 290 291 291
297 286 305 312 295 295 289 293 296 297 299 297 297 295 293 293 292 291 290 294 293 294 290 290 289 284 286 290 289 289 288 288 282 280 281 281 282 294 293 293 292 293 295 293 291
291 292 305 306 287 289 292 292 295 293 294 295 293 295 295 291 288 291 292 296 295 293 291 292 286 281 282 284 284 284 285 287 287 286 281 278 281 292 293 294 294 293 293 290 288
288 281 290 298 296 291 289 289 289 295 294 296 294 295 292 290 292 289 289 292 291 292 295 295 287 284 280 283 286 284 286 285 285 280 281 282 284 288 290 291 286 286 288 285 285
285 282 286 284 286 288 291 289 287 286 292 294 291 291 289 286 287 286 287 285 287 288 288 287 281 285 284 283 283 282 281 281 280 282 278 281 281 286 279 280 281 284 283 282 282
281 281 285 284 284 285 285 284 285 287 289 287 287 287 287 284 283 280 280 281 280 282 280 283 275 279 275 279 279 277 278 278 279 279 279 281 282 280 280 280 282 281 280 280 281
284 285 285 280 280 278 278 281 279 281 283 285 281 280 279 282 281 282 283 282 281 278 276 278 273 268 270 276 273 269 273 275 276 278 277 275 275 280 277 278 280 280 280 279 280
Wind_Speed
12 13 14 14 14 14 14 14 14 13 13 12 13 13 13 11 7 1 6 8 4 13 8 6 3 3 3 3 3 4 4 2 6 4 6 1 2 2 1 2 2 7 5 2 4
11 12 13 14 14 14 14 14 14 14 14 14 13 13 13 11 2 6 8 4 8 13 6 7 4 4 2 2 1 5 4 9 7 5 5 4 4 3 1 4 5 6 5 4 6
11 12 12 13 14 15 15 15 14 14 13 14 14 15 13 6 5 6 1 8 12 8 6 3 6 4 2 2 4 5 7 5 6 8 5 4 4 5 4 8 10 9 8 6 7
9 10 11 12 13 14 15 16 16 15 15 14 13 14 15 1 6 1 2 9 11 8 6 6 4 4 4 5 5 3 9 6 5 4 3 5 4 5 9 19 9 13 7 6 10
7 8 10 11 13 14 15 16 16 16 15 13 13 13 4 2 11 4 8 10 6 5 7 6 5 6 5 5 3 5 5 6 6 7 8 5 13 8 10 20 10 8 8 11 10
8 9 9 10 12 14 16 17 18 16 14 13 10 9 1 6 0 6 9 6 6 6 6 7 7 7 5 5 7 3 4 8 8 9 8 8 17 7 13 7 10 8 13 13 12
8 9 9 11 13 15 17 18 19 17 15 12 7 2 2 18 3 6 6 4 6 6 5 4 6 5 4 3 3 3 7 8 7 6 8 7 13 12 19 3 13 11 11 10 14
9 9 9 10 12 15 17 18 20 17 12 8 5 2 9 1 4 5 4 3 2 2 2 4 4 3 3 1 5 3 1 5 2 7 2 8 13 23 11 5 13 12 11 10 14
9 9 10 11 12 15 17 17 8 8 5 9 4 3 10 3 2 2 4 5 5 3 3 3 5 3 3 5 5 3 5 7 13 13 6 7 9 11 4 6 10 12 12 12 12
9 10 11 12 13 16 20 11 3 2 4 2 1 2 5 4 1 3 1 6 4 5 4 4 5 1 2 4 7 8 6 6 7 5 3 5 14 14 19 6 16 19 18 16 18
9 10 10 12 14 17 10 3 6 4 4 6 4 5 5 1 0 2 2 5 4 5 5 1 4 8 19 12 1 3 5 6 14 12 3 11 18 18 19 19 22 20 19 20 21
8 8 9 10 13 16 3 6 2 2 9 7 11 8 6 2 3 2 5 6 4 7 6 3 8 17 4 4 8 8 5 15 13 19 6 14 18 17 20 23 25 24 25 21 12
8 7 8 6 11 5 3 2 2 4 3 10 6 4 5 7 7 7 10 4 5 6 8 10 7 6 5 4 9 5 8 16 11 9 6 9 12 7 12 17 22 23 23 18 13
8 8 7 8 3 2 2 1 2 1 4 8 4 3 1 2 4 2 3 5 2 9 7 7 5 8 3 9 8 12 12 14 8 3 5 6 18 8 10 14 9 18 11 11 11
6 4 3 2 2 1 1 1 1 2 9 3 3 2 2 4 1 3 2 1 6 7 7 9 5 4 5 11 7 12 4 5 3 5 4 1 5 3 3 9 13 10 10 12 11
9 6 6 3 1 3 4 3 3 4 12 3 1 1 3 1 1 1 2 3 2 3 3 7 2 7 9 6 9 1 2 4 4 2 7 14 11 5 5 8 5 4 7 10 9
5 5 4 1 1 5 3 3 3 7 6 3 2 0 1 2 2 4 3 4 5 1 4 1 5 4 4 3 2 3 5 5 5 1 12 3 7 14 6 8 4 10 11 10 8
8 3 4 3 6 3 1 3 10 4 5 5 3 2 3 3 2 2 1 4 6 1 2 3 17 9 6 9 9 8 10 8 7 8 16 1 15 9 9 7 7 6 5 8 8
9 0 2 4 8 1 1 9 6 7 7 5 1 7 8 5 6 6 9 8 8 12 8 5 8 3 5 3 6 5 7 5 3 1 2 11 21 23 16 8 7 7 6 9 9
2 3 3 7 10 4 5 12 6 5 2 1 7 6 7 5 5 5 7 3 4 9 1 3 13 8 2 2 0 6 1 1 2 4 10 11 15 28 14 9 7 8 9 9 10
1 0 2 6 4 3 11 8 9 12 6 5 5 14 11 6 6 8 5 1 4 4 5 6 7 13 2 7 9 3 3 3 2 5 13 19 16 22 18 6 9 6 7 9 10
1 1 1 6 7 4 9 6 1 8 8 6 5 16 17 15 17 16 20 11 4 3 3 3 5 10 23 8 7 7 14 21 18 13 13 19 20 23 22 17 10 18 21 10 9
2 2 2 1 7 10 6 6 6 12 17 5 7 8 10 18 19 15 15 8 4 3 3 2 5 3 7 7 3 6 5 14 18 18 24 22 15 4 16 22 19 18 20 16 15
1 2 3 3 5 4 8 17 16 5 10 10 13 14 18 20 15 10 15 4 6 1 4 0 7 15 18 20 18 10 10 10 10 9 11 14 18 14 20 21 22 22 19 16 17
1 3 1 3 5 5 7 11 13 11 4 1 2 7 7 8 9 9 5 3 3 6 4 3 8 10 12 13 15 19 18 21 24 22 22 24 27 20 10 14 17 15 20 21 20
3 2 2 3 5 3 3 9 18 18 10 11 8 10 6 9 4 2 3 2 3 5 4 2 5 8 15 22 14 18 23 26 24 27 21 21 21 5 8 12 12 13 18 21 23
0 2 1 3 2 3 4 3 3 2 7 7 6 7 5 1 2 5 7 8 7 6 5 4 3 0 16 22 14 14 17 18 15 12 6 7 7 6 10 12 9 10 12 17 17
Wind_Direction
19 17 13 10 7 6 3 360 358 355 351 348 346 343 340 336 311 139 237 221 177 151 97 120 81 93 70 93 100 134 66 243 251 193 257 240 325 188 189 282 229 209 222 219 116
13 9 8 4 4 1 359 355 351 348 344 343 340 337 335 334 274 240 248 207 147 152 107 141 144 117 75 131 91 106 139 221 211 207 241 289 204 258 250 249 252 283 241 137 149
0 1 3 3 1 358 354 350 345 340 340 340 338 334 331 325 329 248 10 188 162 153 122 98 105 111 162 149 199 175 209 212 252 230 261 258 271 209 179 262 222 225 249 182 185
351 351 354 355 355 351 347 343 338 335 333 335 336 332 322 271 303 334 48 157 148 118 103 105 101 128 186 212 186 214 245 208 254 216 275 247 283 241 187 251 230 217 238 170 203
338 339 342 342 343 341 337 334 331 327 324 327 333 336 348 360 248 122 100 115 108 105 151 143 145 150 197 201 178 215 234 242 242 266 257 286 253 234 249 254 247 240 233 233 225
324 327 332 332 331 332 328 326 322 316 314 314 321 325 90 248 287 135 125 127 142 134 155 141 193 200 208 215 180 214 252 264 266 245 230 210 271 139 250 269 266 227 241 237 229
310 318 324 326 325 323 320 318 313 304 298 293 299 280 168 238 95 134 138 173 169 157 158 208 162 156 159 271 258 296 311 310 223 247 231 169 292 224 252 270 273 265 258 254 234
303 313 316 317 316 315 315 317 315 305 282 259 227 187 244 348 125 131 156 105 114 171 193 168 161 181 179 247 352 320 203 309 275 144 245 153 258 277 250 222 272 283 282 259 259
300 308 313 315 315 314 314 316 331 12 59 136 120 151 265 133 247 212 158 151 117 71 54 90 123 174 70 114 3 334 240 230 310 197 153 187 247 269 261 181 271 282 279 279 281
298 306 316 320 323 321 322 319 259 35 57 220 43 28 275 273 199 104 39 123 118 108 63 59 47 124 41 108 223 226 223 261 249 302 159 242 254 280 286 267 257 268 270 268 267
295 308 320 327 328 327 345 18 12 1 33 204 212 261 286 331 241 65 158 100 100 82 169 196 130 201 233 206 181 247 244 242 262 269 278 245 272 271 274 283 273 265 261 259 254
282 294 312 332 332 328 7 75 153 189 304 247 244 252 244 260 283 183 138 146 151 191 118 67 216 228 75 165 231 245 284 267 281 271 188 273 270 267 262 256 261 268 271 262 271
276 290 299 326 331 15 357 66 139 144 239 285 222 207 231 153 223 224 154 140 167 166 200 200 217 213 209 209 244 200 224 258 255 317 252 302 275 230 263 248 261 264 258 276 259
271 273 285 307 59 295 14 29 140 122 293 274 258 295 144 147 261 341 228 147 183 214 175 237 252 204 136 232 195 265 230 253 260 359 249 35 293 213 230 261 241 259 262 256 245
308 292 243 174 138 73 219 114 95 38 297 257 190 275 68 142 347 6 315 32 194 186 135 234 180 162 176 224 144 230 198 233 187 204 332 291 269 162 154 255 260 267 272 273 275
50 4 133 91 104 127 119 63 338 112 250 304 78 92 97 112 137 8 61 35 90 176 252 243 323 178 214 220 195 50 76 58 52 115 267 200 193 55 173 213 256 240 277 278 307
24 28 185 92 291 135 125 60 322 239 351 334 335 25 165 205 250 169 165 194 199 315 239 233 222 245 177 234 118 156 51 321 326 349 253 167 231 228 207 217 243 264 275 283 323
351 338 207 154 148 160 148 130 225 199 272 321 8 318 242 178 250 70 349 267 224 134 151 237 281 187 186 192 190 177 163 165 243 275 286 33 256 268 225 254 254 256 296 304 320
328 287 194 181 145 171 160 236 224 169 189 226 237 250 281 257 209 201 204 237 220 181 213 218 256 275 225 147 151 172 179 206 246 209 293 255 279 281 230 266 321 312 340 304 298
27 343 249 161 152 129 243 242 248 219 266 212 225 209 246 225 191 192 199 180 249 193 144 317 306 209 230 55 138 181 200 81 313 235 252 271 277 266 302 303 299 314 315 327 324
72 324 274 141 134 188 226 238 246 231 243 239 257 261 247 249 242 258 262 239 234 189 183 163 214 275 30 191 189 175 219 210 282 214 256 262 255 278 293 299 314 308 266 274 287
136 225 286 161 193 221 240 217 253 237 288 277 276 261 266 271 270 266 258 223 166 25 250 214 225 256 271 242 219 217 248 249 245 253 237 250 252 280 292 306 305 301 307 311 275
183 270 260 176 224 229 249 277 248 261 255 266 266 228 258 266 273 254 259 266 326 269 221 146 228 268 297 266 60 217 242 246 252 260 254 261 267 267 297 309 312 344 7 34 22
79 299 299 233 263 259 276 266 262 219 254 240 252 256 267 262 258 261 275 342 340 351 356 190 249 258 265 273 291 291 316 328 298 277 290 274 292 319 306 325 344 354 14 26 14
43 236 251 229 249 282 251 270 279 278 245 313 281 264 293 277 282 266 275 321 3 27 65 60 272 277 290 296 291 299 287 284 273 275 267 285 285 300 19 356 349 356 2 7 9
154 145 344 279 318 278 244 254 264 275 276 264 270 318 293 262 291 344 10 351 312 355 25 334 273 336 291 283 286 292 283 270 273 268 271 278 276 6 21 2 1 24 7 356 349
330 339 101 250 173 148 215 267 38 24 46 74 60 3 321 280 281 262 226 229 240 260 226 238 222 128 274 288 319 282 252 263 274 338 4 300 359 360 358 356 346 333 358 342 337